Location: Asheville, NC
(35.6000°N, 82.5500°W)
Time: 12:05:37

nSIGHT-1 - Pass Details

Date: 18 March 2018
Orbit: 384 x 390 km, 51.6° (Epoch: 24 March)

Event Time Altitude Azimuth Distance (km) Brightness Sun altitude
Exits shadow 06:03:11 36° 350° (N) 641 ? -19.7°
Maximum altitude 06:04:05 48° 39° (NE) 513 ? -19.5°
Drops below altitude 10° 06:07:09 10° 115° (ESE) 1,410 ? -18.9°
Sets 06:09:14 0° 121° (ESE) 2,259 ? -18.5°
